Wind_Speed
18 19 19 19 20 20 20 20 19 18 19 19 19 18 18 18 17 16 16 15 14 14 14 14 14 13 13 12 12 12 11 11 11 11 10 10 11 11 11 10 10 10 10 9
18 18 19 20 21 21 21 21 19 19 20 20 20 19 18 19 18 17 17 16 16 15 15 15 15 14 14 14 13 11 11 11 11 11 12 12 12 12 13 11 11 11 10 10
19 18 19 20 21 21 21 21 20 20 21 21 20 18 19 20 20 19 18 18 17 17 16 15 15 16 16 15 13 12 11 12 12 12 12 12 13 13 13 11 11 11 11 11
19 20 20 20 21 21 20 20 20 21 21 21 20 19 18 19 19 19 19 18 18 18 17 15 16 17 16 16 14 13 13 13 13 14 13 12 13 14 14 13 12 13 13 12
20 20 20 21 20 21 20 20 20 20 21 21 21 21 19 19 19 18 18 19 19 19 18 17 17 18 17 17 17 16 15 15 15 15 15 14 14 14 14 13 13 14 13 13
19 20 20 20 21 21 20 20 21 21 21 22 20 22 20 18 18 18 18 18 18 18 18 18 18 18 18 18 18 17 16 16 16 16 15 15 15 14 14 14 15 15 15 14
19 20 20 21 21 20 20 21 22 22 22 21 20 22 20 18 18 18 18 18 17 17 18 18 19 19 19 19 18 17 17 18 18 17 16 15 15 15 15 15 16 16 16 15
18 18 19 20 20 20 20 20 21 22 21 21 21 22 20 19 19 19 18 18 18 18 19 19 20 21 21 20 20 19 20 19 18 18 17 16 16 16 17 17 17 17 16 16
16 17 17 19 19 21 21 21 21 22 22 22 22 21 19 19 19 19 18 18 19 19 20 20 21 21 21 20 20 21 20 19 20 20 19 18 18 18 18 18 18 18 18 17
17 17 18 19 19 20 21 21 21 22 23 23 22 21 19 19 19 20 19 19 19 19 21 21 21 21 22 21 21 20 20 20 20 20 19 19 19 19 19 20 20 20 19 19
18 19 19 19 19 20 21 21 22 23 24 24 24 22 20 20 20 20 21 21 20 20 21 21 21 21 22 21 21 21 21 21 20 19 19 20 20 20 21 21 21 21 21 21
20 20 20 20 20 20 21 22 22 22 23 24 25 23 21 21 21 21 22 22 21 22 21 21 20 21 20 20 21 21 21 21 20 20 20 21 21 21 22 22 22 22 22 21
21 21 21 21 21 21 22 22 22 23 23 24 24 24 22 23 22 22 22 23 22 21 21 20 20 21 21 22 22 22 21 21 20 20 21 21 22 22 23 23 23 22 23 23
21 21 21 21 21 21 22 22 22 22 23 24 24 24 23 23 23 23 23 23 22 21 21 20 20 20 22 22 22 22 21 21 22 22 22 22 23 23 23 23 23 22 23 23
22 22 22 22 21 22 23 23 23 23 23 25 25 25 24 24 24 23 24 24 23 22 21 20 20 21 22 22 22 22 22 22 22 23 23 23 23 23 23 24 23 23 23 23
23 23 22 22 22 23 24 24 24 24 24 25 25 26 26 26 25 24 24 24 23 23 23 22 22 23 23 22 22 22 22 22 22 23 23 24 25 25 25 24 24 23 22 22
24 24 24 24 23 24 25 24 24 25 25 25 25 25 25 25 24 23 24 24 23 23 23 23 23 23 23 22 22 22 21 22 23 23 23 24 24 25 25 25 24 24 23 23
25 25 25 25 25 27 25 24 24 25 25 25 25 25 24 23 23 23 23 23 23 23 23 23 23 22 22 22 23 23 22 22 22 23 22 23 23 23 23 24 24 24 24 23
26 25 26 25 26 26 25 24 24 24 24 25 25 25 25 25 25 24 25 25 24 24 24 24 23 23 22 23 23 22 22 21 22 22 21 22 22 22 22 22 23 23 23 23
26 26 26 25 26 26 24 24 24 25 25 25 25 25 25 26 26 25 25 26 25 25 25 24 24 24 23 23 22 22 21 21 21 21 21 21 21 21 21 20 21 22 22 22
25 25 26 25 26 25 24 24 24 25 25 25 25 26 25 25 24 24 25 25 25 25 25 24 24 24 24 23 22 22 21 21 20 21 21 20 20 20 20 20 19 20 20 20
24 25 25 26 26 25 25 25 24 25 25 25 25 25 25 25 24 25 25 26 26 25 25 25 24 24 24 24 22 21 21 21 21 21 20 20 20 20 19 19 19 19 19 20
25 25 26 26 26 26 26 26 25 25 26 26 26 25 25 25 25 25 25 26 25 25 25 25 25 24 23 23 22 22 21 20 20 20 21 20 20 20 20 19 19 19 19 20
26 26 26 26 26 26 26 26 26 26 26 25 25 25 25 25 25 25 26 26 25 25 25 25 25 24 23 23 23 21 21 21 21 22 21 21 20 20 20 20 20 20 20 20
26 27 27 27 26 26 25 26 26 26 26 25 25 25 24 24 24 24 24 24 24 23 24 24 24 23 23 23 22 22 21 21 22 22 22 21 20 20 20 20 20 20 20 20
25 26 27 27 26 26 25 25 25 25 26 26 25 24 24 23 23 23 23 23 23 22 23 23 22 23 23 22 21 21 21 22 22 22 22 22 21 20 19 18 19 20 20 20
Wind_Direction
241 242 243 245 248 249 251 252 254 255 257 260 263 265 268 272 273 275 277 279 281 286 289 288 289 290 294 295 292 289 283 285 287 288 289 292 295 295 296 296 296 298 298 298
242 243 242 244 246 247 251 253 254 254 257 261 263 264 265 268 268 271 273 276 279 283 286 285 288 289 290 290 291 290 284 287 288 287 285 288 293 292 290 287 287 291 293 292
242 243 243 245 248 250 252 253 254 254 256 261 263 262 261 264 269 271 272 274 276 279 281 283 289 291 295 295 295 291 287 287 287 284 286 289 290 287 285 285 287 288 287 284
240 242 245 247 250 255 256 258 256 256 258 261 263 263 261 265 271 273 273 272 274 276 277 283 289 292 295 294 294 293 286 284 283 283 287 288 288 286 283 284 286 286 285 283
242 244 246 247 250 256 258 256 256 255 260 263 265 268 266 267 274 275 275 273 274 276 277 282 285 288 290 292 292 291 283 281 281 281 282 285 285 284 281 280 282 283 282 282
245 247 249 251 252 256 256 255 256 256 261 264 265 268 268 270 274 274 276 276 276 275 277 279 280 282 283 285 287 287 280 279 279 279 280 281 280 280 281 278 278 279 280 280
247 249 251 252 253 255 256 256 256 257 260 264 265 267 270 271 272 275 278 280 279 277 278 278 278 279 280 281 282 282 281 280 277 277 277 277 274 275 277 277 275 276 278 276
250 250 251 254 255 256 257 257 258 263 264 264 266 270 273 273 273 274 276 279 279 280 280 278 277 279 278 278 279 279 280 277 275 278 277 275 273 275 275 275 274 273 274 272
251 250 250 252 256 254 255 255 259 263 264 267 269 272 273 275 276 276 278 280 280 280 281 280 277 276 277 279 281 277 275 272 274 275 276 276 274 274 274 275 273 272 271 269
253 252 251 253 255 254 254 257 260 263 266 269 271 273 277 277 278 278 280 283 282 282 281 279 279 276 276 280 283 281 277 275 273 274 275 274 272 271 271 272 272 271 269 267
256 257 255 255 256 257 258 259 262 264 268 272 274 276 278 279 280 281 281 282 283 283 285 283 281 281 280 280 281 281 279 275 272 273 273 273 272 271 270 270 270 268 266 265
255 257 257 256 257 257 259 260 263 266 270 274 276 277 279 280 281 284 285 285 284 284 286 284 284 286 284 282 280 281 276 273 270 271 272 273 273 272 271 270 269 268 266 265
255 256 258 257 256 258 260 262 263 266 270 274 278 280 278 280 282 284 287 287 287 284 284 285 287 286 286 286 283 282 276 271 271 272 272 272 273 272 270 269 269 267 266 265
256 257 259 261 262 262 263 265 268 269 270 274 277 280 280 281 283 284 286 289 289 286 285 285 286 287 288 286 285 282 279 275 274 273 271 272 274 272 270 270 269 268 267 266
257 258 260 263 264 263 264 266 269 271 273 274 276 279 282 282 283 284 284 285 286 286 286 286 286 287 287 286 285 282 280 278 275 274 272 272 273 272 272 271 269 266 265 264
258 260 261 264 265 265 266 268 270 272 274 276 277 278 279 280 281 282 284 284 284 285 285 285 286 287 287 285 284 282 281 279 277 277 273 274 273 272 273 271 268 266 264 263
259 260 261 264 266 267 268 269 269 270 272 275 278 279 280 279 280 282 283 282 280 280 283 284 285 286 285 284 284 283 281 278 278 279 277 278 276 274 273 271 267 266 263 261
258 261 263 267 267 268 271 271 271 271 272 274 276 280 280 281 282 282 281 280 280 279 281 283 284 284 283 283 284 283 281 282 281 279 278 279 278 276 274 270 267 265 263 260
259 261 264 267 269 270 269 270 271 271 272 275 277 279 279 279 280 280 280 280 279 279 280 281 281 280 279 281 282 281 282 282 280 281 280 278 279 278 275 272 268 265 262 260
259 261 265 267 268 269 270 269 269 271 273 277 279 280 278 279 281 281 280 279 278 279 280 278 276 277 277 278 279 278 280 281 280 280 280 278 278 278 275 273 270 265 262 259
259 261 264 267 269 272 272 271 271 271 275 277 279 279 279 280 280 279 278 277 277 279 278 275 274 275 277 275 275 276 278 279 278 281 282 280 278 276 273 270 270 264 261 259
262 264 264 267 269 273 274 273 271 273 276 278 277 279 279 279 279 278 277 278 277 276 276 275 275 275 276 275 274 275 275 276 278 280 281 279 277 274 271 267 266 265 260 258
264 265 266 267 269 271 272 271 271 274 276 278 278 279 278 277 278 278 278 277 276 276 275 276 275 274 274 273 272 273 274 274 276 278 278 277 275 273 270 266 265 267 262 258
264 266 268 268 269 271 271 272 272 274 275 277 278 277 277 277 278 279 279 277 276 276 277 277 275 275 274 273 272 272 272 272 273 277 278 275 275 273 268 266 265 264 263 260
264 266 268 269 270 271 271 272 272 272 273 276 278 278 277 277 278 279 279 278 277 277 278 277 275 274 275 275 273 272 274 272 274 276 276 274 273 272 270 268 264 262 264 264
265 267 269 270 271 272 273 271 271 273 275 277 278 277 276 278 279 279 279 279 277 277 277 275 274 275 276 276 273 272 274 274 274 274 273 273 273 272 272 271 266 262 262 262
Height
5850 5852 5854 5855 5856 5857 5857 5858 5860 5861 5860 5861 5861 5861 5862 5862 5863 5863 5863 5862 5862 5861 5860 5859 5858 5858 5857 5856 5855 5855 5854 5854 5854 5853 5853 5852 5852 5852 5852 5852 5851 5850 5850 5849
5847 5849 5850 5850 5851 5852 5853 5855 5856 5857 5856 5857 5857 5858 5859 5859 5859 5859 5859 5859 5858 5857 5856 5855 5855 5854 5853 5852 5852 5851 5850 5850 5850 5850 5850 5850 5849 5849 5849 5849 5848 5848 5847 5847
5843 5846 5846 5847 5848 5849 5850 5851 5852 5853 5852 5853 5854 5855 5855 5855 5855 5855 5855 5854 5854 5853 5853 5852 5851 5850 5849 5849 5847 5846 5847 5847 5847 5847 5846 5846 5846 5846 5846 5845 5845 5845 5844 5844
5839 5841 5842 5843 5844 5845 5847 5848 5848 5848 5848 5849 5850 5850 5851 5851 5851 5850 5850 5849 5849 5849 5848 5847 5847 5847 5846 5845 5844 5843 5843 5843 5843 5843 5843 5842 5842 5842 5842 5842 5842 5841 5841 5841
5836 5837 5838 5839 5841 5841 5843 5843 5843 5844 5844 5845 5845 5845 5847 5847 5847 5847 5846 5845 5845 5844 5844 5844 5843 5843 5842 5841 5840 5839 5839 5839 5839 5839 5839 5839 5838 5838 5838 5838 5838 5838 5837 5837
5832 5833 5834 5836 5837 5838 5839 5839 5839 5840 5840 5841 5842 5841 5842 5843 5843 5842 5842 5841 5841 5840 5840 5839 5839 5838 5837 5836 5836 5835 5835 5835 5834 5834 5834 5834 5834 5834 5834 5834 5834 5833 5833 5833
5828 5829 5830 5832 5833 5834 5835 5836 5836 5836 5836 5837 5837 5837 5838 5838 5838 5838 5837 5837 5836 5836 5835 5835 5834 5833 5832 5832 5831 5830 5830 5830 5830 5829 5829 5829 5829 5829 5829 5829 5829 5829 5829 5828
5824 5826 5827 5827 5829 5830 5830 5832 5832 5832 5832 5833 5833 5832 5835 5834 5833 5833 5833 5832 5832 5831 5830 5830 5829 5828 5827 5826 5826 5825 5825 5824 5824 5824 5824 5824 5824 5824 5824 5824 5824 5824 5824 5824
5820 5822 5823 5823 5824 5825 5826 5827 5828 5828 5828 5828 5828 5829 5830 5829 5829 5829 5829 5828 5827 5826 5825 5824 5823 5822 5821 5820 5819 5819 5818 5818 5819 5819 5819 5819 5819 5819 5819 5819 5819 5819 5819 5819
5817 5818 5819 5819 5820 5820 5822 5822 5823 5823 5823 5823 5824 5824 5825 5825 5825 5824 5824 5823 5822 5821 5820 5819 5817 5817 5816 5815 5814 5813 5812 5812 5813 5813 5813 5813 5813 5813 5813 5813 5814 5814 5814 5814
5812 5814 5815 5815 5815 5816 5817 5818 5818 5818 5819 5819 5818 5822 5821 5820 5820 5820 5819 5818 5817 5816 5815 5814 5812 5811 5810 5810 5809 5808 5807 5807 5807 5807 5807 5807 5807 5807 5807 5807 5807 5808 5808 5808
5808 5809 5809 5811 5811 5811 5812 5813 5813 5814 5814 5814 5814 5818 5816 5815 5814 5814 5813 5813 5812 5811 5810 5809 5807 5806 5805 5804 5803 5803 5802 5801 5801 5801 5801 5801 5801 5801 5801 5801 5801 5801 5802 5802
5803 5804 5804 5805 5808 5808 5807 5808 5808 5809 5809 5808 5808 5812 5810 5809 5809 5809 5808 5807 5806 5805 5804 5803 5802 5801 5799 5798 5797 5797 5796 5796 5795 5795 5795 5795 5795 5795 5794 5794 5794 5795 5795 5796
5797 5798 5800 5801 5802 5802 5802 5803 5803 5803 5803 5803 5803 5804 5804 5803 5803 5803 5802 5801 5800 5799 5798 5797 5796 5795 5793 5792 5791 5791 5790 5790 5789 5789 5789 5789 5788 5788 5788 5787 5787 5788 5789 5789
5792 5793 5794 5795 5796 5796 5797 5798 5798 5798 5798 5798 5798 5798 5798 5797 5797 5797 5796 5795 5795 5794 5792 5791 5790 5789 5788 5787 5785 5785 5784 5783 5782 5782 5782 5782 5781 5781 5781 5781 5781 5781 5782 5783
5786 5787 5788 5789 5790 5790 5791 5792 5792 5792 5792 5791 5791 5792 5792 5791 5791 5790 5790 5789 5788 5787 5786 5785 5784 5783 5782 5780 5779 5778 5777 5776 5776 5775 5775 5774 5774 5774 5774 5774 5774 5774 5775 5776
5781 5782 5783 5783 5784 5784 5785 5786 5786 5786 5786 5786 5786 5786 5785 5784 5784 5784 5783 5782 5781 5781 5780 5779 5778 5777 5775 5774 5773 5772 5771 5770 5769 5769 5767 5767 5767 5766 5766 5766 5767 5767 5768 5769
5775 5776 5776 5777 5778 5778 5781 5780 5780 5780 5780 5780 5780 5779 5779 5778 5778 5777 5777 5776 5775 5774 5773 5772 5771 5770 5769 5768 5767 5766 5764 5764 5763 5762 5761 5760 5759 5759 5758 5759 5759 5760 5761 5762
5768 5769 5770 5770 5770 5771 5773 5773 5773 5773 5773 5774 5773 5773 5772 5771 5771 5771 5770 5769 5768 5767 5766 5765 5765 5764 5763 5762 5760 5759 5758 5757 5756 5755 5754 5754 5753 5752 5751 5751 5752 5752 5753 5755
5762 5763 5764 5764 5764 5764 5767 5767 5766 5767 5767 5767 5766 5766 5765 5765 5764 5764 5763 5761 5761 5760 5759 5758 5757 5756 5755 5755 5754 5753 5752 5751 5750 5749 5748 5747 5746 5745 5745 5745 5745 5746 5747 5748
5755 5756 5757 5757 5757 5758 5759 5759 5760 5761 5761 5760 5759 5759 5758 5758 5757 5757 5755 5754 5753 5753 5752 5751 5750 5749 5748 5747 5747 5746 5745 5745 5744 5743 5742 5741 5740 5739 5739 5739 5739 5740 5741 5742
5749 5750 5750 5751 5751 5753 5752 5752 5753 5753 5753 5752 5752 5751 5751 5750 5750 5749 5748 5747 5746 5745 5744 5743 5742 5741 5741 5740 5739 5739 5739 5738 5737 5737 5736 5735 5734 5733 5733 5733 5733 5734 5734 5735
5742 5744 5743 5745 5746 5745 5744 5744 5745 5745 5745 5744 5744 5744 5743 5743 5742 5741 5740 5739 5738 5737 5736 5735 5734 5734 5733 5733 5732 5732 5731 5731 5731 5730 5729 5729 5728 5727 5727 5727 5727 5727 5728 5729
5735 5736 5736 5737 5737 5737 5737 5737 5737 5737 5737 5737 5736 5736 5735 5735 5734 5734 5732 5731 5730 5729 5728 5727 5727 5726 5726 5725 5725 5725 5724 5724 5724 5723 5723 5722 5721 5721 5720 5720 5721 5721 5722 5723
5728 5729 5729 5729 5730 5730 5730 5730 5729 5729 5729 5729 5729 5728 5728 5727 5727 5726 5725 5723 5722 5721 5720 5720 5719 5719 5718 5718 5717 5717 5717 5717 5716 5716 5716 5715 5715 5714 5714 5714 5714 5715 5715 5716
5721 5721 5721 5722 5722 5722 5722 5722 5722 5721 5721 5721 5721 5721 5720 5720 5719 5718 5717 5716 5715 5714 5713 5712 5712 5711 5711 5710 5710 5710 5710 5709 5709 5709 5708 5708 5708 5707 5707 5707 5708 5708 5709 5709